Regional Weather Roundup
Issued by NWS

Home | Current Version | Previous Version | Text Only | Print | Product List | Glossary Off
Versions: 1 2 3 4 5 6 7 8 9 10 11 12 13 14 15 16 17 18 19 20 21 22 23 24 25 26 27 28 29 30 31 32 33 34 35 36 37 38 39 40 41 42 43 44 45 46 47 48 49 50

000
ASUS45 KCYS 301410
RWRWY

WYOMING REGIONAL WEATHER ROUNDUP
NATIONAL WEATHER SERVICE CHEYENNE WY
800 AM MDT SAT AUG 30 2014

NOTE:  "FAIR" INDICATES FEW OR NO CLOUDS BELOW 12,000 FEET
WITH NO SIGNIFICANT WEATHER AND/OR OBSTRUCTIONS TO VISIBILITY.

WYZ001-301500-
YELLOWSTONE NATIONAL PARK

CITY           SKY/WX    TMP DP  RH WIND       PRES   REMARKS
LK YELLOWSTONE   N/A     47  44  90 NW7       30.14R
W YELLOWSTONE  NOT AVBL

$$
WYZ002>013-054>058-071-098>099-301500-
NORTHERN WYOMING

CITY           SKY/WX    TMP DP  RH WIND       PRES   REMARKS
JACKSON        NOT AVBL
CODY           PTSUNNY   63  45  51 SW6       29.90R
GREYBULL       PTSUNNY   60  47  61 SE5       29.83F
WORLAND        PTSUNNY   67  46  47 S6        29.85F
SHERIDAN       PTSUNNY   57  50  77 NW6       29.82F
BUFFALO        MOSUNNY   63  44  50 CALM      29.89F
GILLETTE       SUNNY     61  52  72 S22G29    29.88F
HULETT         FAIR      61  54  77 MISG      29.90
NEWCASTLE      FAIR      64  46  52 SE14      29.95

$$
WYZ014>020-022>026-101>103-301500-
CENTRAL WYOMING

CITY           SKY/WX    TMP DP  RH WIND       PRES   REMARKS
BIG PINEY      MOSUNNY   49  43  80 E5        30.10F
PINEDALE       MOSUNNY   50  43  76 CALM      30.11F
DUBOIS         FAIR      45  37  76 CALM      30.05F
LANDER         PTSUNNY   59  43  55 SW3       29.96F
RIVERTON       PTSUNNY   60  43  53 S8        29.96F
CASPER         SUNNY     67  42  40 SW14G21   29.99F
DOUGLAS        SUNNY     56  52  86 S3        29.99S

$$
WYZ021-027>030-104>119-301500-
SOUTHERN WYOMING

CITY           SKY/WX    TMP DP  RH WIND       PRES   REMARKS
EVANSTON       SUNNY     56  40  55 SW14      30.11R
KEMMERER       MOSUNNY   57  37  47 SW3       30.12S
FORT BRIDGER   FAIR      60  39  46 W8        30.12S
ROCK SPRINGS   MOSUNNY   60  39  45 S8        30.09F
DIXON          FAIR      53  47  82 SE6       30.18S
RAWLINS        SUNNY     63  39  41 S8        30.13F
SARATOGA       FAIR      55  43  62 SE7       30.17S
LARAMIE        SUNNY     54  43  66 S7        30.18S
CHEYENNE       SUNNY     56  48  74 SW5       30.11F
TORRINGTON     SUNNY     60  53  77 SE9       29.97F
PINE BLUFFS    FAIR      55  52  88 SW3       30.07S

$$



USA.gov is the U.S. government's official web portal to all federal, state and local government web resources and services.